* Astronomy

Members Login
Username 
 
Password 
    Remember Me  
Post Info TOPIC: Asteroid 2010 RX30 and 2010 RF12


L

Posts: 131433
Date:
Asteroid 2010 RF12
Permalink  
 


The 6 - 13 metre wide asteroid 2010 RF12 will make a close pass (37.3 lunar distances, 0.0958 AU), travelling at 8.00 km/second, to the Earth-Moon system on the 26th February, 2012 @ 08:25 UT ±00:01.

See more

The Lunar Distance (LD), the distance between Earth and the Moon, equals 384,401 km, (or 0.00256 AU).



__________________


L

Posts: 131433
Date:
Permalink  
 

Orbital Elements at Epoch 2455400.5 (2010-Jul-23.0) TDB
Reference: JPL 9 (heliocentric ecliptic J2000)
Element Value Uncertainty (1-sigma) Units
e .1762757913060577 8.5098e-06
a .9970252416908032 1.4791e-06 AU
q .8212738282596433 7.2834e-06 AU
i 3.545853679313751 0.00018781 deg
node 165.644191188453 1.5111e-05 deg
peri 283.9590552694677 0.00016334 deg
M 229.0937955573149 0.0012674 deg
tp 2455532.725551541413
(2010-Dec-02.22555155)
0.00098723 JED
period 363.6282845229846
1.00
0.00080919
2.215e-06
d
yr
n .9900219958748691 2.2031e-06 deg/d
Q 1.172776655121963 1.7399e-06 AU
Orbit Determination Parameters
# obs. used (total) 316
data-arc span 3 days
first obs. used 2010-09-05
last obs. used 2010-09-08
planetary ephem. DE405
SB-pert. ephem. SB405-CPV-2
condition code 3
fit RMS .49111
data source ORB
producer Otto Matic
solution date 2010-Sep-11 01:50:22

Additional Information
Earth MOID = .000652836 AU
T_jup = 6.079
Source

__________________


L

Posts: 131433
Date:
Permalink  
 



2-minute video of near-earth asteroid 2010 RF12 taken about 13 hours before closest approach. Asteroid is moving at 117"/min due south. It is the faint dot that is near the top centre at the start of the clip, moving to the bottom centre at the end. A satellite crosses the field at the end of the clip.

__________________


L

Posts: 131433
Date:
Asteroid 2010 RX30 and 2010 RF12
Permalink  
 


Two Asteroids to Pass by Earth

Near-Earth asteroid 2010 RX30 is estimated to be 32 to 65 feet (10 to 20 meters) in size and will pass within 0.6 lunar distances of Earth (about 154,000 miles, or 248,000 kilometres) at 2:51 a.m. PDT (5:51 a.m. EDT) Wednesday. The second object, 2010 RF12, estimated to be 20 to 46 feet (6 to 14 meters) in size, will pass within 0.2 lunar distances (about 49,088 miles or 79,000 kilometres) a few hours later at 2:12 p.m. PDT (5:12 pm EDT).
Read more

__________________
Page 1 of 1  sorted by
 
Quick Reply

Please log in to post quick replies.



Create your own FREE Forum
Report Abuse
Powered by ActiveBoard